| time (UTC) | temp F | wind direction | speed knots | gust knots | rain 1hr in | rain 24hr in | rain mn in | humidity % | barometer mb |
| 20260507051026 | 57 | 240 | 3.5 | 7.0 | 0.00 | 0.00 | 0.00 | 71 | 1012.3 |
| 20260507050018 | 56 | 241 | 3.5 | 7.0 | 0.00 | 0.00 | 0.00 | 71 | 1012.4 |
| 20260507045011 | 56 | 241 | 4.3 | 9.6 | 0.00 | 0.00 | 0.00 | 72 | 1012.1 |
| 20260507044005 | 56 | 236 | 3.5 | 7.0 | 0.00 | 0.00 | 0.00 | 72 | 1012.1 |
| 20260507042958 | 56 | 239 | 3.5 | 7.8 | 0.00 | 0.00 | 0.00 | 72 | 1011.9 |
| 20260507041951 | 55 | 244 | 5.2 | 11.3 | 0.00 | 0.00 | 0.00 | 73 | 1011.8 |
| 20260507040942 | 55 | 241 | 5.2 | 7.8 | 0.00 | 0.00 | 0.00 | 73 | 1011.4 |
| 20260507035935 | 55 | 241 | 3.5 | 6.1 | 0.00 | 0.00 | 0.00 | 73 | 1011.4 |
| 20260507034928 | 55 | 238 | 3.5 | 6.1 | 0.00 | 0.00 | 0.00 | 73 | 1011.3 |
| 20260507033921 | 56 | 247 | 4.3 | 7.8 | 0.00 | 0.00 | 0.00 | 72 | 1011.4 |
| 20260507032913 | 56 | 243 | 6.1 | 9.6 | 0.00 | 0.00 | 0.00 | 72 | 1011.2 |
| 20260507031906 | 56 | 241 | 5.2 | 9.6 | 0.00 | 0.00 | 0.00 | 72 | 1011.3 |
| 20260507030857 | 57 | 242 | 5.2 | 8.7 | 0.00 | 0.00 | 0.00 | 71 | 1011.1 |
| 20260507025851 | 57 | 240 | 4.3 | 7.0 | 0.00 | 0.00 | 0.00 | 71 | 1010.9 |
| 20260507024844 | 57 | 243 | 3.5 | 7.0 | 0.00 | 0.00 | 0.00 | 71 | 1010.8 |
| 20260507023838 | 57 | 239 | 3.5 | 6.1 | 0.00 | 0.00 | 0.00 | 71 | 1010.7 |
| 20260507022830 | 57 | 240 | 4.3 | 9.6 | 0.00 | 0.00 | 0.00 | 71 | 1010.7 |
| 20260507021823 | 58 | 241 | 6.1 | 9.6 | 0.00 | 0.00 | 0.00 | 71 | 1010.8 |
| 20260507020816 | 58 | 239 | 6.1 | 9.6 | 0.00 | 0.00 | 0.00 | 71 | 1010.6 |
| 20260507015808 | 58 | 243 | 6.1 | 9.6 | 0.00 | 0.00 | 0.00 | 70 | 1010.7 |
| 20260507014801 | 58 | 245 | 6.1 | 9.6 | 0.00 | 0.00 | 0.00 | 70 | 1010.5 |
| 20260507013754 | 58 | 241 | 6.1 | 9.6 | 0.00 | 0.00 | 0.00 | 71 | 1010.6 |
| 20260507012746 | 58 | 238 | 4.3 | 8.7 | 0.00 | 0.00 | 0.00 | 72 | 1010.5 |
| 20260507011738 | 58 | 241 | 3.5 | 6.1 | 0.00 | 0.00 | 0.00 | 72 | 1010.2 |
| 20260507010731 | 58 | 244 | 4.3 | 8.7 | 0.00 | 0.00 | 0.00 | 72 | 1010.2 |
| 20260507005724 | 59 | 241 | 7.8 | 12.2 | 0.00 | 0.00 | 0.00 | 71 | 1010.2 |
| 20260507004718 | 59 | 242 | 6.1 | 13.9 | 0.00 | 0.00 | 0.00 | 71 | 1010.0 |
| 20260507003710 | 60 | 245 | 4.3 | 8.7 | 0.00 | 0.00 | 0.00 | 70 | 1010.1 |
| 20260507002703 | 58 | 210 | 0.0 | 2.6 | 0.00 | 0.00 | 0.00 | 72 | 1009.9 |
| 20260507001703 | 59 | 233 | 1.7 | 2.6 | 0.00 | 0.00 | 0.00 | 70 | 1009.6 |
| 20260507000657 | 60 | 239 | 3.5 | 6.1 | 0.00 | 0.00 | 0.00 | 68 | 1009.6 |
| 20260506235650 | 60 | 247 | 4.3 | 7.0 | 0.00 | 0.00 | 0.00 | 68 | 1009.6 |
| 20260506234641 | 60 | 246 | 4.3 | 7.8 | 0.00 | 0.00 | 0.00 | 67 | 1009.4 |
| 20260506233635 | 60 | 249 | 4.3 | 8.7 | 0.00 | 0.00 | 0.00 | 67 | 1009.3 |
| 20260506232628 | 60 | 238 | 3.5 | 5.2 | 0.00 | 0.00 | 0.00 | 67 | 1009.1 |
| 20260506231622 | 60 | 227 | 0.9 | 2.6 | 0.00 | 0.00 | 0.00 | 65 | 1009.0 |
| 20260506230614 | 61 | 221 | 0.9 | 2.6 | 0.00 | 0.00 | 0.00 | 63 | 1008.8 |
| 20260506225607 | 62 | 235 | 2.6 | 7.0 | 0.00 | 0.00 | 0.00 | 62 | 1008.7 |
| 20260506224600 | 62 | 239 | 4.3 | 7.0 | 0.00 | 0.00 | 0.00 | 63 | 1008.7 |
| 20260506223552 | 62 | 240 | 3.5 | 5.2 | 0.00 | 0.00 | 0.00 | 63 | 1008.4 |
| 20260506222545 | 63 | 238 | 3.5 | 7.0 | 0.00 | 0.00 | 0.00 | 62 | 1007.8 |
| 20260506221545 | 63 | 246 | 4.3 | 11.3 | 0.00 | 0.00 | 0.00 | 61 | 1007.8 |
| 20260506220539 | 63 | 245 | 4.3 | 11.3 | 0.00 | 0.00 | 0.00 | 61 | 1007.6 |
| 20260506215532 | 63 | 226 | 1.7 | 5.2 | 0.00 | 0.00 | 0.00 | 61 | 1007.3 |
| 20260506214526 | 64 | 243 | 3.5 | 7.0 | 0.00 | 0.00 | 0.00 | 58 | 1007.2 |
| 20260506213518 | 64 | 243 | 4.3 | 13.0 | 0.00 | 0.00 | 0.00 | 57 | 1007.1 |
| 20260506212511 | 63 | 207 | 0.9 | 3.5 | 0.00 | 0.00 | 0.00 | 60 | 1006.4 |
| 20260506211503 | 64 | 154 | 0.9 | 5.2 | 0.00 | 0.00 | 0.00 | 58 | 1006.2 |
| 20260506210456 | 65 | 126 | 1.7 | 5.2 | 0.00 | 0.00 | 0.00 | 58 | 1006.2 |
| 20260506205449 | 65 | 128 | 1.7 | 6.1 | 0.00 | 0.00 | 0.00 | 57 | 1006.2 |
| 20260506204441 | 64 | 162 | 0.9 | 3.5 | 0.00 | 0.00 | 0.00 | 58 | 1006.0 |
| 20260506203434 | 63 | 145 | 0.9 | 3.5 | 0.00 | 0.00 | 0.00 | 60 | 1006.1 |
| 20260506202427 | 64 | 148 | 0.9 | 3.5 | 0.00 | 0.00 | 0.00 | 60 | 1005.9 |
| 20260506201419 | 65 | 99 | 1.7 | 7.0 | 0.00 | 0.00 | 0.00 | 57 | 1005.9 |
| 20260506200412 | 66 | 105 | 2.6 | 6.1 | 0.00 | 0.00 | 0.00 | 54 | 1005.4 |
| 20260506195406 | 67 | 77 | 3.5 | 7.0 | 0.00 | 0.00 | 0.00 | 54 | 1005.5 |
| 20260506194359 | 67 | 113 | 1.7 | 6.1 | 0.00 | 0.00 | 0.00 | 53 | 1005.4 |
| 20260506193352 | 68 | 110 | 1.7 | 6.1 | 0.00 | 0.00 | 0.00 | 52 | 1005.4 |
| 20260506192345 | 68 | 107 | 2.6 | 9.6 | 0.00 | 0.00 | 0.00 | 51 | 1004.7 |
| 20260506191336 | 68 | 121 | 1.7 | 7.0 | 0.00 | 0.00 | 0.00 | 51 | 1004.9 |
| 20260506190329 | 69 | 130 | 1.7 | 7.8 | 0.00 | 0.00 | 0.00 | 50 | 1004.7 |
| 20260506185322 | 69 | 143 | 1.7 | 7.8 | 0.00 | 0.00 | 0.00 | 49 | 1004.7 |
| 20260506184315 | 69 | 141 | 1.7 | 7.0 | 0.00 | 0.00 | 0.00 | 49 | 1004.9 |
| 20260506183308 | 70 | 122 | 1.7 | 7.0 | 0.00 | 0.00 | 0.00 | 49 | 1004.4 |
| 20260506182259 | 70 | 142 | 1.7 | 8.7 | 0.00 | 0.00 | 0.00 | 48 | 1004.2 |
| 20260506181252 | 70 | 124 | 2.6 | 6.1 | 0.00 | 0.00 | 0.00 | 48 | 1004.2 |
| 20260506180247 | 71 | 122 | 1.7 | 7.0 | 0.00 | 0.00 | 0.00 | 47 | 1004.0 |
| 20260506175240 | 72 | 141 | 2.6 | 7.0 | 0.00 | 0.00 | 0.00 | 47 | 1003.9 |
| 20260506174232 | 72 | 137 | 1.7 | 7.0 | 0.00 | 0.00 | 0.00 | 46 | 1003.7 |
| 20260506173225 | 72 | 124 | 1.7 | 5.2 | 0.00 | 0.00 | 0.00 | 46 | 1004.0 |
| 20260506172217 | 73 | 121 | 1.7 | 7.0 | 0.00 | 0.00 | 0.00 | 47 | 1004.1 |
| 20260506171210 | 73 | 123 | 2.6 | 8.7 | 0.00 | 0.00 | 0.00 | 46 | 1004.1 |
| 20260506170203 | 74 | 134 | 2.6 | 8.7 | 0.00 | 0.00 | 0.00 | 44 | 1004.1 |
| 20260506165155 | 74 | 133 | 2.6 | 9.6 | 0.00 | 0.00 | 0.00 | 43 | 1004.2 |
| 20260506164147 | 75 | 159 | 2.6 | 8.7 | 0.00 | 0.00 | 0.00 | 43 | 1004.1 |
| 20260506163140 | 75 | 162 | 2.6 | 8.7 | 0.00 | 0.00 | 0.00 | 42 | 1004.4 |
| 20260506162134 | 76 | 145 | 2.6 | 9.6 | 0.00 | 0.00 | 0.00 | 42 | 1004.3 |
| 20260506161128 | 76 | 149 | 2.6 | 9.6 | 0.00 | 0.00 | 0.00 | 41 | 1004.5 |
| 20260506160119 | 77 | 149 | 2.6 | 7.8 | 0.00 | 0.00 | 0.00 | 40 | 1004.4 |
| 20260506155112 | 78 | 121 | 2.6 | 13.0 | 0.00 | 0.00 | 0.00 | 39 | 1004.5 |
| 20260506154105 | 78 | 144 | 2.6 | 9.6 | 0.00 | 0.00 | 0.00 | 37 | 1004.2 |
| 20260506153058 | 79 | 121 | 2.6 | 7.0 | 0.00 | 0.00 | 0.00 | 37 | 1004.3 |
| 20260506152058 | 79 | 151 | 3.5 | 9.6 | 0.00 | 0.00 | 0.00 | 36 | 1004.4 |
| 20260506151051 | 79 | 110 | 4.3 | 9.6 | 0.00 | 0.00 | 0.00 | 36 | 1004.5 |
| 20260506150044 | 79 | 111 | 3.5 | 12.2 | 0.00 | 0.00 | 0.00 | 38 | 1004.6 |
| 20260506145038 | 79 | 91 | 5.2 | 12.2 | 0.00 | 0.00 | 0.00 | 38 | 1004.6 |
| 20260506144031 | 79 | 107 | 4.3 | 13.0 | 0.00 | 0.00 | 0.00 | 38 | 1004.8 |
| 20260506143024 | 78 | 117 | 4.3 | 12.2 | 0.00 | 0.00 | 0.00 | 38 | 1004.9 |
| 20260506142016 | 78 | 90 | 5.2 | 13.9 | 0.00 | 0.00 | 0.00 | 38 | 1005.0 |
| 20260506141008 | 78 | 113 | 5.2 | 13.9 | 0.00 | 0.00 | 0.00 | 37 | 1005.4 |
| 20260506140001 | 79 | 103 | 5.2 | 13.0 | 0.00 | 0.00 | 0.00 | 36 | 1005.2 |
| 20260506134954 | 79 | 112 | 5.2 | 14.8 | 0.00 | 0.00 | 0.00 | 37 | 1005.4 |
| 20260506133947 | 78 | 101 | 6.1 | 14.8 | 0.00 | 0.00 | 0.00 | 37 | 1005.5 |
| 20260506132939 | 77 | 94 | 5.2 | 13.9 | 0.00 | 0.00 | 0.00 | 39 | 1005.5 |
| 20260506131932 | 77 | 93 | 6.1 | 15.6 | 0.00 | 0.00 | 0.00 | 39 | 1006.1 |
| 20260506130924 | 77 | 91 | 6.1 | 14.8 | 0.00 | 0.00 | 0.00 | 40 | 1006.4 |
| 20260506125917 | 76 | 89 | 5.2 | 13.0 | 0.00 | 0.00 | 0.00 | 40 | 1006.5 |
| 20260506124911 | 75 | 103 | 5.2 | 13.0 | 0.00 | 0.00 | 0.00 | 41 | 1006.6 |
| 20260506123904 | 78 | 107 | 5.2 | 13.9 | 0.00 | 0.00 | 0.00 | 40 | 1006.6 |
| 20260506122856 | 78 | 113 | 4.3 | 12.2 | 0.00 | 0.00 | 0.00 | 39 | 1007.1 |
| 20260506121848 | 78 | 108 | 4.3 | 13.0 | 0.00 | 0.00 | 0.00 | 38 | 1006.9 |
| 20260506120842 | 77 | 100 | 5.2 | 14.8 | 0.00 | 0.00 | 0.00 | 41 | 1007.0 |
| 20260506115834 | 76 | 111 | 5.2 | 12.2 | 0.00 | 0.00 | 0.00 | 41 | 1007.2 |
| 20260506114827 | 76 | 92 | 6.1 | 14.8 | 0.00 | 0.00 | 0.00 | 40 | 1007.3 |
| 20260506113827 | 76 | 105 | 5.2 | 13.0 | 0.00 | 0.00 | 0.00 | 41 | 1007.3 |
| 20260506112823 | 75 | 84 | 5.2 | 11.3 | 0.00 | 0.00 | 0.00 | 43 | 1007.6 |
| 20260506111815 | 77 | 137 | 4.3 | 12.2 | 0.00 | 0.00 | 0.00 | 42 | 1007.6 |
| 20260506110808 | 76 | 122 | 3.5 | 11.3 | 0.00 | 0.00 | 0.00 | 44 | 1007.7 |
| 20260506105800 | 75 | 87 | 6.1 | 13.9 | 0.00 | 0.00 | 0.00 | 45 | 1007.8 |
| 20260506104753 | 75 | 112 | 4.3 | 12.2 | 0.00 | 0.00 | 0.00 | 44 | 1008.0 |
| 20260506103745 | 75 | 104 | 4.3 | 15.6 | 0.00 | 0.00 | 0.00 | 42 | 1008.0 |
| 20260506102738 | 75 | 96 | 5.2 | 12.2 | 0.00 | 0.00 | 0.00 | 44 | 1007.9 |
| 20260506101738 | 75 | 87 | 5.2 | 13.0 | 0.00 | 0.00 | 0.00 | 45 | 1008.3 |
| 20260506100732 | 75 | 88 | 5.2 | 13.9 | 0.00 | 0.00 | 0.00 | 43 | 1008.5 |
| 20260506095725 | 75 | 110 | 3.5 | 13.0 | 0.00 | 0.00 | 0.00 | 44 | 1008.6 |
| 20260506094717 | 74 | 97 | 4.3 | 8.7 | 0.00 | 0.00 | 0.00 | 45 | 1008.6 |
| 20260506093712 | 74 | 91 | 2.6 | 7.0 | 0.00 | 0.00 | 0.00 | 46 | 1008.8 |
| 20260506092704 | 73 | 96 | 3.5 | 9.6 | 0.00 | 0.00 | 0.00 | 48 | 1009.0 |
| 20260506091656 | 74 | 127 | 2.6 | 7.8 | 0.00 | 0.00 | 0.00 | 44 | 1008.9 |
| 20260506090649 | 74 | 116 | 1.7 | 6.1 | 0.00 | 0.00 | 0.00 | 44 | 1008.8 |
| 20260506085641 | 74 | 130 | 1.7 | 5.2 | 0.00 | 0.00 | 0.00 | 42 | 1008.8 |
| 20260506084634 | 73 | 143 | 1.7 | 6.1 | 0.00 | 0.00 | 0.00 | 44 | 1009.1 |
| 20260506083627 | 73 | 149 | 0.9 | 3.5 | 0.00 | 0.00 | 0.00 | 43 | 1009.1 |
| 20260506082619 | 72 | 166 | 0.9 | 2.6 | 0.00 | 0.00 | 0.00 | 46 | 1009.1 |
| 20260506081612 | 70 | 219 | 1.7 | 5.2 | 0.00 | 0.00 | 0.00 | 48 | 1009.2 |
| 20260506080604 | 69 | 239 | 3.5 | 7.0 | 0.00 | 0.00 | 0.00 | 50 | 1009.3 |
| 20260506072536 | 68 | 240 | 5.2 | 8.7 | 0.00 | 0.00 | 0.00 | 56 | 1009.7 |
| 20260506071528 | 68 | 230 | 3.5 | 7.8 | 0.00 | 0.00 | 0.00 | 55 | 1009.8 |
| 20260506070521 | 67 | 235 | 3.5 | 7.0 | 0.00 | 0.00 | 0.00 | 56 | 1009.9 |
| 20260506062452 | 64 | 217 | 1.7 | 7.0 | 0.00 | 0.00 | 0.00 | 66 | 1009.7 |
| 20260506061445 | 64 | 211 | 0.9 | 2.6 | 0.00 | 0.00 | 0.00 | 67 | 1009.9 |
| 20260506060436 | 64 | 209 | 0.9 | 1.7 | 0.00 | 0.00 | 0.00 | 68 | 1009.8 |
| 20260506051401 | 61 | 241 | 3.5 | 7.0 | 0.00 | 0.00 | 0.00 | 74 | 1009.8 |